| time (UTC) | temp F | wind direction | speed MPH | gust MPH | rain 1hr in | rain 24hr in | rain mn in | humidity % | barometer mb |
| 20260906051904 | 58 | 59 | 0.0 | 0.0 | 0.00 | 0.00 | 0.00 | 94 | 1013.4 |
| 20260906051405 | 58 | 59 | 0.0 | 0.0 | 0.00 | 0.00 | 0.00 | 94 | 1013.5 |
| 20260906050905 | 58 | 59 | 0.0 | 0.0 | 0.00 | 0.00 | 0.00 | 94 | 1013.4 |
| 20260906045905 | 58 | 59 | 0.0 | 0.0 | 0.00 | 0.00 | 0.00 | 93 | 1013.3 |
| 20260906045405 | 58 | 59 | 0.0 | 0.0 | 0.00 | 0.00 | 0.00 | 93 | 1013.4 |
| 20260906044905 | 58 | 59 | 0.0 | 0.0 | 0.00 | 0.00 | 0.00 | 93 | 1013.4 |
| 20260906044404 | 58 | 59 | 0.0 | 0.0 | 0.00 | 0.00 | 0.00 | 93 | 1013.5 |
| 20260906043905 | 58 | 59 | 0.0 | 0.0 | 0.00 | 0.00 | 0.00 | 93 | 1013.5 |
| 20260906043405 | 58 | 59 | 0.0 | 0.0 | 0.00 | 0.00 | 0.00 | 93 | 1013.5 |
| 20260906042905 | 59 | 59 | 0.0 | 0.0 | 0.00 | 0.00 | 0.00 | 93 | 1013.4 |
| 20260906042404 | 59 | 59 | 0.0 | 0.0 | 0.00 | 0.00 | 0.00 | 92 | 1013.6 |
| 20260906040905 | 59 | 59 | 0.0 | 0.0 | 0.00 | 0.00 | 0.00 | 92 | 1013.4 |
| 20260906040404 | 59 | 59 | 0.0 | 0.0 | 0.00 | 0.00 | 0.00 | 92 | 1013.5 |
| 20260906035905 | 59 | 59 | 0.0 | 0.0 | 0.00 | 0.00 | 0.00 | 92 | 1013.6 |
| 20260906035405 | 60 | 59 | 0.0 | 0.0 | 0.00 | 0.00 | 0.00 | 92 | 1013.6 |
| 20260906034904 | 60 | 59 | 0.0 | 0.0 | 0.00 | 0.00 | 0.00 | 92 | 1013.5 |
| 20260906034404 | 60 | 59 | 0.0 | 0.0 | 0.00 | 0.00 | 0.00 | 92 | 1013.5 |
| 20260906033905 | 60 | 59 | 0.0 | 0.0 | 0.00 | 0.00 | 0.00 | 92 | 1013.7 |
| 20260906033404 | 60 | 59 | 0.0 | 0.0 | 0.00 | 0.00 | 0.00 | 92 | 1013.7 |
| 20260906032904 | 60 | 59 | 0.0 | 0.0 | 0.00 | 0.00 | 0.00 | 92 | 1013.6 |
| 20260906032405 | 60 | 59 | 0.0 | 0.0 | 0.00 | 0.00 | 0.00 | 92 | 1013.7 |
| 20260906031405 | 60 | 59 | 0.0 | 0.0 | 0.00 | 0.00 | 0.00 | 91 | 1013.6 |
| 20260906030904 | 60 | 59 | 0.0 | 0.0 | 0.00 | 0.00 | 0.00 | 91 | 1013.6 |
| 20260906030405 | 60 | 59 | 0.0 | 0.0 | 0.00 | 0.00 | 0.00 | 91 | 1013.7 |
| 20260906025905 | 60 | 59 | 0.0 | 0.0 | 0.00 | 0.00 | 0.00 | 91 | 1013.5 |
| 20260906025405 | 60 | 59 | 0.0 | 0.0 | 0.00 | 0.00 | 0.00 | 91 | 1013.6 |
| 20260906024405 | 61 | 59 | 0.0 | 0.0 | 0.00 | 0.00 | 0.00 | 91 | 1013.3 |
| 20260906023905 | 61 | 59 | 0.0 | 0.0 | 0.00 | 0.00 | 0.00 | 91 | 1013.3 |
| 20260906023404 | 61 | 59 | 0.0 | 0.0 | 0.00 | 0.00 | 0.00 | 91 | 1013.3 |
| 20260906022404 | 61 | 59 | 0.0 | 0.0 | 0.00 | 0.00 | 0.00 | 91 | 1013.3 |
| 20260906020404 | 61 | 59 | 0.0 | 0.0 | 0.00 | 0.00 | 0.00 | 90 | 1013.3 |
| 20260906015905 | 62 | 59 | 0.0 | 0.0 | 0.00 | 0.00 | 0.00 | 90 | 1013.2 |
| 20260906015404 | 62 | 59 | 0.0 | 0.0 | 0.00 | 0.00 | 0.00 | 89 | 1013.3 |
| 20260906014904 | 62 | 59 | 0.0 | 0.0 | 0.00 | 0.00 | 0.00 | 89 | 1013.2 |
| 20260906014405 | 62 | 59 | 0.0 | 0.0 | 0.00 | 0.00 | 0.00 | 88 | 1013.1 |
| 20260906013905 | 62 | 59 | 0.0 | 0.0 | 0.00 | 0.00 | 0.00 | 88 | 1013.2 |
| 20260906013404 | 62 | 59 | 0.0 | 0.0 | 0.00 | 0.00 | 0.00 | 88 | 1013.2 |
| 20260906012905 | 63 | 59 | 0.0 | 0.0 | 0.00 | 0.00 | 0.00 | 88 | 1013.1 |
| 20260906012405 | 63 | 59 | 0.0 | 0.0 | 0.00 | 0.00 | 0.00 | 87 | 1013.0 |
| 20260906010905 | 63 | 59 | 0.0 | 0.0 | 0.00 | 0.00 | 0.00 | 87 | 1013.0 |
| 20260906005905 | 64 | 59 | 0.0 | 0.0 | 0.00 | 0.00 | 0.00 | 86 | 1012.9 |
| 20260906005404 | 64 | 59 | 0.0 | 0.0 | 0.00 | 0.00 | 0.00 | 86 | 1012.9 |
| 20260906004905 | 64 | 59 | 0.0 | 0.0 | 0.00 | 0.00 | 0.00 | 86 | 1012.8 |
| 20260906003404 | 65 | 59 | 0.0 | 0.0 | 0.00 | 0.00 | 0.00 | 85 | 1012.6 |
| 20260906002905 | 65 | 59 | 0.0 | 0.0 | 0.00 | 0.00 | 0.00 | 84 | 1012.5 |
| 20260906002404 | 65 | 59 | 0.0 | 0.0 | 0.00 | 0.00 | 0.00 | 83 | 1012.5 |
| 20260906001904 | 65 | 59 | 0.0 | 0.0 | 0.00 | 0.00 | 0.00 | 82 | 1012.5 |
| 20260906001404 | 66 | 59 | 0.0 | 0.0 | 0.00 | 0.00 | 0.00 | 82 | 1012.4 |
| 20260906000905 | 66 | 59 | 0.0 | 0.0 | 0.00 | 0.00 | 0.00 | 80 | 1012.5 |
| 20260906000405 | 67 | 59 | 0.0 | 0.0 | 0.00 | 0.00 | 0.00 | 80 | 1012.3 |
| 20260905235904 | 67 | 59 | 0.0 | 0.0 | 0.00 | 0.00 | 0.00 | 81 | 1012.3 |
| 20260905235405 | 67 | 59 | 0.0 | 0.0 | 0.00 | 0.00 | 0.00 | 78 | 1012.4 |
| 20260905234904 | 68 | 59 | 0.0 | 0.0 | 0.00 | 0.00 | 0.00 | 78 | 1012.3 |
| 20260905233905 | 68 | 59 | 0.0 | 0.0 | 0.00 | 0.00 | 0.00 | 74 | 1012.1 |
| 20260905233405 | 69 | 59 | 0.0 | 0.0 | 0.00 | 0.00 | 0.00 | 74 | 1012.2 |
| 20260905232904 | 69 | 59 | 0.0 | 0.0 | 0.00 | 0.00 | 0.00 | 74 | 1012.2 |
| 20260905232405 | 69 | 59 | 0.0 | 0.0 | 0.00 | 0.00 | 0.00 | 72 | 1012.1 |
| 20260905231904 | 70 | 59 | 0.0 | 0.0 | 0.00 | 0.00 | 0.00 | 72 | 1012.0 |
| 20260905231405 | 70 | 59 | 0.0 | 0.0 | 0.00 | 0.00 | 0.00 | 71 | 1012.0 |
| 20260905230904 | 70 | 59 | 0.0 | 0.0 | 0.00 | 0.00 | 0.00 | 70 | 1011.9 |
| 20260905230405 | 71 | 49 | 0.0 | 0.0 | 0.00 | 0.00 | 0.00 | 71 | 1011.9 |
| 20260905225904 | 71 | 49 | 0.0 | 0.0 | 0.00 | 0.00 | 0.00 | 70 | 1011.9 |
| 20260905225405 | 71 | 49 | 0.0 | 0.0 | 0.00 | 0.00 | 0.00 | 69 | 1011.9 |
| 20260905224904 | 72 | 73 | 0.0 | 0.0 | 0.00 | 0.00 | 0.00 | 73 | 1011.6 |
| 20260905223905 | 72 | 73 | 0.0 | 1.0 | 0.00 | 0.00 | 0.00 | 72 | 1011.7 |
| 20260905223404 | 73 | 73 | 0.0 | 0.0 | 0.00 | 0.00 | 0.00 | 73 | 1011.6 |
| 20260905222905 | 73 | 73 | 0.0 | 0.0 | 0.00 | 0.00 | 0.00 | 75 | 1011.5 |
| 20260905222404 | 73 | 73 | 0.0 | 0.0 | 0.00 | 0.00 | 0.00 | 73 | 1011.4 |
| 20260905221905 | 73 | 73 | 1.0 | 3.0 | 0.00 | 0.00 | 0.00 | 75 | 1011.3 |
| 20260905221404 | 74 | 51 | 0.0 | 0.0 | 0.00 | 0.00 | 0.00 | 73 | 1011.3 |
| 20260905220904 | 74 | 51 | 0.0 | 0.0 | 0.00 | 0.00 | 0.00 | 73 | 1011.3 |
| 20260905220404 | 74 | 51 | 0.0 | 1.0 | 0.00 | 0.00 | 0.00 | 73 | 1011.3 |
| 20260905215905 | 74 | 77 | 0.0 | 0.0 | 0.00 | 0.00 | 0.00 | 71 | 1011.1 |
| 20260905215404 | 74 | 77 | 0.0 | 0.0 | 0.00 | 0.00 | 0.00 | 76 | 1011.0 |
| 20260905214905 | 74 | 77 | 0.0 | 0.0 | 0.00 | 0.00 | 0.00 | 78 | 1011.0 |
| 20260905214405 | 74 | 82 | 0.0 | 0.0 | 0.00 | 0.00 | 0.00 | 77 | 1010.9 |
| 20260905213905 | 74 | 82 | 0.0 | 0.0 | 0.00 | 0.00 | 0.00 | 77 | 1011.0 |
| 20260905212905 | 75 | 49 | 0.0 | 0.0 | 0.00 | 0.00 | 0.00 | 76 | 1011.0 |
| 20260905211905 | 75 | 49 | 0.0 | 0.0 | 0.00 | 0.00 | 0.00 | 74 | 1010.8 |
| 20260905211404 | 75 | 49 | 0.0 | 0.0 | 0.00 | 0.00 | 0.00 | 75 | 1010.8 |
| 20260905210404 | 75 | 48 | 0.0 | 0.0 | 0.00 | 0.00 | 0.00 | 78 | 1010.8 |
| 20260905205904 | 75 | 48 | 0.0 | 0.0 | 0.00 | 0.00 | 0.00 | 78 | 1010.8 |
| 20260905205404 | 75 | 48 | 1.0 | 3.0 | 0.00 | 0.00 | 0.00 | 78 | 1010.8 |
| 20260905204905 | 75 | 64 | 0.0 | 0.0 | 0.00 | 0.00 | 0.00 | 79 | 1010.8 |
| 20260905204404 | 75 | 64 | 0.0 | 0.0 | 0.00 | 0.00 | 0.00 | 79 | 1010.9 |
| 20260905203904 | 75 | 64 | 0.0 | 0.0 | 0.00 | 0.00 | 0.00 | 78 | 1010.9 |
| 20260905203404 | 75 | 64 | 0.0 | 0.0 | 0.00 | 0.00 | 0.00 | 81 | 1010.9 |
| 20260905202904 | 75 | 64 | 0.0 | 0.0 | 0.00 | 0.00 | 0.00 | 80 | 1010.9 |
| 20260905202405 | 75 | 64 | 0.0 | 0.0 | 0.00 | 0.00 | 0.00 | 79 | 1011.0 |
| 20260905201904 | 75 | 64 | 0.0 | 0.0 | 0.00 | 0.00 | 0.00 | 79 | 1011.0 |
| 20260905201405 | 75 | 64 | 0.0 | 0.0 | 0.00 | 0.00 | 0.00 | 78 | 1011.0 |
| 20260905200404 | 75 | 64 | 0.0 | 0.0 | 0.00 | 0.00 | 0.00 | 78 | 1011.0 |
| 20260905195904 | 76 | 64 | 0.0 | 0.0 | 0.00 | 0.00 | 0.00 | 79 | 1011.0 |
| 20260905194905 | 76 | 64 | 0.0 | 0.0 | 0.00 | 0.00 | 0.00 | 77 | 1011.1 |
| 20260905193904 | 76 | 64 | 0.0 | 0.0 | 0.00 | 0.00 | 0.00 | 74 | 1011.1 |
| 20260905193405 | 76 | 64 | 0.0 | 0.0 | 0.00 | 0.00 | 0.00 | 78 | 1011.1 |
| 20260905192906 | 76 | 64 | 0.0 | 0.0 | 0.00 | 0.00 | 0.00 | 75 | 1011.1 |
| 20260905192404 | 76 | 64 | 0.0 | 0.0 | 0.00 | 0.00 | 0.00 | 77 | 1011.2 |
| 20260905191904 | 76 | 64 | 0.0 | 0.0 | 0.00 | 0.00 | 0.00 | 80 | 1011.1 |
| 20260905190904 | 76 | 64 | 0.0 | 0.0 | 0.00 | 0.00 | 0.00 | 78 | 1011.4 |
| 20260905190404 | 77 | 64 | 0.0 | 0.0 | 0.00 | 0.00 | 0.00 | 76 | 1011.4 |
| 20260905185904 | 77 | 64 | 0.0 | 0.0 | 0.00 | 0.00 | 0.00 | 76 | 1011.4 |
| 20260905185404 | 78 | 64 | 0.0 | 1.0 | 0.00 | 0.00 | 0.00 | 76 | 1011.4 |
| 20260905183904 | 76 | 64 | 0.0 | 0.0 | 0.00 | 0.00 | 0.00 | 79 | 1011.5 |
| 20260905183404 | 76 | 64 | 0.0 | 0.0 | 0.00 | 0.00 | 0.00 | 79 | 1011.4 |
| 20260905182904 | 77 | 64 | 0.0 | 0.0 | 0.00 | 0.00 | 0.00 | 75 | 1011.5 |
| 20260905182404 | 77 | 64 | 0.0 | 0.0 | 0.00 | 0.00 | 0.00 | 78 | 1011.5 |
| 20260905181905 | 77 | 64 | 0.0 | 0.0 | 0.00 | 0.00 | 0.00 | 77 | 1011.5 |
| 20260905180404 | 75 | 64 | 0.0 | 0.0 | 0.00 | 0.00 | 0.00 | 82 | 1011.7 |
| 20260905175904 | 75 | 64 | 0.0 | 0.0 | 0.00 | 0.00 | 0.00 | 80 | 1011.9 |
| 20260905175404 | 75 | 64 | 0.0 | 0.0 | 0.00 | 0.00 | 0.00 | 79 | 1011.9 |
| 20260905174404 | 76 | 64 | 0.0 | 0.0 | 0.00 | 0.00 | 0.00 | 79 | 1011.8 |
| 20260905173405 | 76 | 65 | 0.0 | 1.0 | 0.00 | 0.00 | 0.00 | 82 | 1011.8 |
| 20260905172404 | 75 | 57 | 0.0 | 1.0 | 0.00 | 0.00 | 0.00 | 81 | 1011.9 |
| 20260905171904 | 76 | 57 | 0.0 | 8.0 | 0.00 | 0.00 | 0.00 | 80 | 1011.9 |
| 20260905171404 | 76 | 189 | 0.0 | 0.0 | 0.00 | 0.00 | 0.00 | 82 | 1012.0 |
| 20260905165905 | 74 | 189 | 0.0 | 0.0 | 0.00 | 0.00 | 0.00 | 85 | 1012.2 |
| 20260905165404 | 73 | 188 | 0.0 | 0.0 | 0.00 | 0.00 | 0.00 | 87 | 1012.3 |
| 20260905164904 | 73 | 188 | 0.0 | 0.0 | 0.00 | 0.00 | 0.00 | 87 | 1012.4 |
| 20260905164404 | 73 | 188 | 0.0 | 0.0 | 0.00 | 0.00 | 0.00 | 87 | 1012.4 |
| 20260905163904 | 73 | 188 | 0.0 | 1.0 | 0.00 | 0.00 | 0.00 | 86 | 1012.4 |
| 20260905163404 | 73 | 188 | 0.0 | 1.0 | 0.00 | 0.00 | 0.00 | 86 | 1012.4 |
| 20260905162904 | 74 | 188 | 0.0 | 0.0 | 0.00 | 0.00 | 0.00 | 88 | 1012.4 |
| 20260905162404 | 74 | 188 | 0.0 | 0.0 | 0.00 | 0.00 | 0.00 | 87 | 1012.4 |
| 20260905161904 | 73 | 188 | 0.0 | 0.0 | 0.00 | 0.00 | 0.00 | 86 | 1012.4 |
| 20260905161404 | 73 | 188 | 0.0 | 0.0 | 0.00 | 0.00 | 0.00 | 86 | 1012.4 |
| 20260905160904 | 73 | 188 | 0.0 | 0.0 | 0.00 | 0.00 | 0.00 | 89 | 1012.5 |
| 20260905160404 | 73 | 188 | 0.0 | 0.0 | 0.00 | 0.00 | 0.00 | 88 | 1012.5 |
| 20260905155904 | 72 | 188 | 0.0 | 0.0 | 0.00 | 0.00 | 0.00 | 88 | 1012.4 |
| 20260905155404 | 72 | 188 | 0.0 | 0.0 | 0.00 | 0.00 | 0.00 | 89 | 1012.2 |
| 20260905154904 | 72 | 188 | 0.0 | 0.0 | 0.00 | 0.00 | 0.00 | 90 | 1012.2 |
| 20260905154404 | 73 | 186 | 0.0 | 0.0 | 0.00 | 0.01 | 0.00 | 90 | 1012.3 |
| 20260905153904 | 72 | 186 | 0.0 | 0.0 | 0.00 | 0.01 | 0.00 | 89 | 1012.3 |
| 20260905153404 | 72 | 186 | 0.0 | 0.0 | 0.00 | 0.01 | 0.00 | 88 | 1012.3 |
| 20260905152904 | 72 | 186 | 0.0 | 0.0 | 0.00 | 0.01 | 0.00 | 88 | 1012.3 |
| 20260905152404 | 73 | 186 | 0.0 | 0.0 | 0.00 | 0.01 | 0.00 | 90 | 1012.3 |
| 20260905151904 | 73 | 186 | 0.0 | 0.0 | 0.00 | 0.02 | 0.00 | 92 | 1012.1 |
| 20260905151407 | 72 | 186 | 0.0 | 0.0 | 0.00 | 0.03 | 0.00 | 90 | 1012.2 |
| 20260905150903 | 73 | 186 | 0.0 | 0.0 | 0.00 | 0.03 | 0.00 | 90 | 1012.2 |
| 20260905150404 | 73 | 186 | 0.0 | 0.0 | 0.00 | 0.04 | 0.00 | 89 | 1012.1 |
| 20260905145904 | 73 | 186 | 0.0 | 0.0 | 0.00 | 0.05 | 0.00 | 90 | 1012.0 |
| 20260905145404 | 73 | 186 | 0.0 | 0.0 | 0.00 | 0.05 | 0.00 | 90 | 1011.9 |
| 20260905144904 | 72 | 186 | 0.0 | 0.0 | 0.00 | 0.06 | 0.00 | 90 | 1011.9 |
| 20260905144404 | 72 | 186 | 0.0 | 0.0 | 0.00 | 0.07 | 0.00 | 91 | 1011.8 |
| 20260905143904 | 72 | 186 | 0.0 | 0.0 | 0.00 | 0.09 | 0.00 | 91 | 1011.8 |
| 20260905143404 | 72 | 186 | 0.0 | 0.0 | 0.00 | 0.09 | 0.00 | 92 | 1011.8 |
| 20260905142904 | 72 | 186 | 0.0 | 0.0 | 0.00 | 0.09 | 0.00 | 93 | 1011.7 |
| 20260905142404 | 71 | 186 | 0.0 | 0.0 | 0.00 | 0.11 | 0.00 | 93 | 1011.7 |
| 20260905141904 | 71 | 186 | 0.0 | 0.0 | 0.00 | 0.23 | 0.00 | 94 | 1011.7 |
| 20260905141404 | 70 | 186 | 0.0 | 0.0 | 0.00 | 0.29 | 0.00 | 94 | 1011.7 |
| 20260905140905 | 70 | 186 | 0.0 | 0.0 | 0.00 | 0.29 | 0.00 | 94 | 1011.7 |
| 20260905140404 | 70 | 186 | 0.0 | 0.0 | 0.00 | 0.29 | 0.00 | 95 | 1011.7 |
| 20260905135904 | 70 | 186 | 0.0 | 0.0 | 0.00 | 0.29 | 0.00 | 95 | 1011.6 |
| 20260905135404 | 70 | 186 | 0.0 | 0.0 | 0.00 | 0.29 | 0.00 | 95 | 1011.6 |
| 20260905134405 | 70 | 186 | 0.0 | 0.0 | 0.00 | 0.29 | 0.00 | 96 | 1011.6 |
| 20260905133905 | 70 | 186 | 0.0 | 0.0 | 0.00 | 0.29 | 0.00 | 96 | 1011.6 |
| 20260905133404 | 70 | 186 | 0.0 | 0.0 | 0.00 | 0.29 | 0.00 | 96 | 1011.6 |
| 20260905132404 | 69 | 186 | 0.0 | 0.0 | 0.00 | 0.29 | 0.00 | 96 | 1011.9 |
| 20260905131404 | 69 | 186 | 0.0 | 0.0 | 0.00 | 0.29 | 0.00 | 96 | 1012.1 |
| 20260905130404 | 69 | 186 | 0.0 | 0.0 | 0.00 | 0.29 | 0.00 | 96 | 1012.2 |
| 20260905125904 | 69 | 186 | 0.0 | 0.0 | 0.00 | 0.29 | 0.00 | 96 | 1012.3 |
| 20260905124904 | 69 | 186 | 0.0 | 0.0 | 0.00 | 0.29 | 0.00 | 96 | 1012.2 |
| 20260905124404 | 69 | 186 | 0.0 | 0.0 | 0.00 | 0.29 | 0.00 | 96 | 1012.2 |
| 20260905123904 | 69 | 186 | 0.0 | 0.0 | 0.00 | 0.29 | 0.00 | 96 | 1012.2 |
| 20260905123403 | 69 | 186 | 0.0 | 0.0 | 0.00 | 0.29 | 0.00 | 96 | 1012.3 |
| 20260905122904 | 69 | 186 | 0.0 | 0.0 | 0.00 | 0.29 | 0.00 | 96 | 1012.3 |
| 20260905122404 | 69 | 186 | 0.0 | 0.0 | 0.00 | 0.29 | 0.00 | 96 | 1012.3 |
| 20260905121904 | 69 | 186 | 0.0 | 0.0 | 0.00 | 0.29 | 0.00 | 96 | 1012.1 |
| 20260905120904 | 68 | 186 | 0.0 | 0.0 | 0.00 | 0.29 | 0.00 | 96 | 1012.1 |
| 20260905120404 | 68 | 186 | 0.0 | 0.0 | 0.00 | 0.29 | 0.00 | 96 | 1012.0 |
| 20260905115904 | 68 | 186 | 0.0 | 0.0 | 0.00 | 0.29 | 0.00 | 96 | 1012.0 |
| 20260905115404 | 68 | 186 | 0.0 | 0.0 | 0.00 | 0.29 | 0.00 | 96 | 1011.9 |
| 20260905114905 | 68 | 186 | 0.0 | 0.0 | 0.00 | 0.29 | 0.00 | 96 | 1011.7 |
| 20260905114404 | 68 | 186 | 0.0 | 0.0 | 0.00 | 0.29 | 0.00 | 96 | 1011.5 |
| 20260905113403 | 68 | 186 | 0.0 | 0.0 | 0.00 | 0.29 | 0.00 | 96 | 1011.7 |
| 20260905112904 | 68 | 186 | 0.0 | 0.0 | 0.00 | 0.29 | 0.00 | 96 | 1011.8 |
| 20260905112404 | 68 | 186 | 0.0 | 0.0 | 0.00 | 0.29 | 0.00 | 96 | 1011.7 |
| 20260905111904 | 68 | 186 | 0.0 | 0.0 | 0.00 | 0.29 | 0.00 | 96 | 1011.8 |
| 20260905111404 | 68 | 186 | 0.0 | 0.0 | 0.00 | 0.29 | 0.00 | 96 | 1011.7 |
| 20260905110904 | 68 | 186 | 0.0 | 0.0 | 0.00 | 0.29 | 0.00 | 96 | 1011.7 |
| 20260905110404 | 68 | 186 | 0.0 | 0.0 | 0.00 | 0.29 | 0.00 | 96 | 1011.5 |
| 20260905105904 | 68 | 186 | 0.0 | 0.0 | 0.00 | 0.29 | 0.00 | 96 | 1011.8 |
| 20260905105404 | 68 | 186 | 0.0 | 0.0 | 0.00 | 0.29 | 0.00 | 96 | 1011.7 |
| 20260905104904 | 68 | 186 | 0.0 | 0.0 | 0.00 | 0.29 | 0.00 | 96 | 1011.7 |
| 20260905104404 | 68 | 186 | 0.0 | 0.0 | 0.00 | 0.29 | 0.00 | 96 | 1011.8 |
| 20260905103903 | 68 | 186 | 0.0 | 0.0 | 0.00 | 0.29 | 0.00 | 96 | 1012.1 |
| 20260905103404 | 68 | 186 | 0.0 | 0.0 | 0.00 | 0.29 | 0.00 | 96 | 1012.1 |
| 20260905102905 | 68 | 186 | 0.0 | 0.0 | 0.00 | 0.29 | 0.00 | 96 | 1012.0 |
| 20260905102404 | 68 | 186 | 0.0 | 0.0 | 0.00 | 0.29 | 0.00 | 96 | 1011.9 |
| 20260905101904 | 68 | 186 | 0.0 | 0.0 | 0.00 | 0.29 | 0.00 | 96 | 1011.8 |
| 20260905101404 | 68 | 186 | 0.0 | 0.0 | 0.00 | 0.29 | 0.00 | 96 | 1011.6 |
| 20260905100904 | 68 | 186 | 0.0 | 0.0 | 0.00 | 0.29 | 0.00 | 96 | 1011.5 |
| 20260905100404 | 68 | 186 | 0.0 | 0.0 | 0.00 | 0.29 | 0.00 | 96 | 1011.5 |
| 20260905095904 | 68 | 186 | 0.0 | 0.0 | 0.00 | 0.29 | 0.00 | 96 | 1011.6 |
| 20260905094904 | 68 | 186 | 0.0 | 0.0 | 0.00 | 0.29 | 0.00 | 96 | 1011.5 |
| 20260905094404 | 68 | 186 | 0.0 | 0.0 | 0.00 | 0.29 | 0.00 | 96 | 1011.3 |
| 20260905093904 | 68 | 186 | 0.0 | 0.0 | 0.00 | 0.29 | 0.00 | 96 | 1011.3 |
| 20260905093404 | 68 | 186 | 0.0 | 0.0 | 0.00 | 0.29 | 0.00 | 96 | 1011.2 |
| 20260905092904 | 68 | 186 | 0.0 | 0.0 | 0.00 | 0.29 | 0.00 | 96 | 1011.2 |
| 20260905091904 | 68 | 186 | 0.0 | 0.0 | 0.00 | 0.29 | 0.00 | 96 | 1011.1 |
| 20260905090904 | 67 | 186 | 0.0 | 0.0 | 0.00 | 0.29 | 0.00 | 96 | 1011.2 |
| 20260905090404 | 67 | 186 | 0.0 | 0.0 | 0.00 | 0.29 | 0.00 | 96 | 1011.1 |
| 20260905085903 | 67 | 186 | 0.0 | 0.0 | 0.00 | 0.29 | 0.00 | 96 | 1011.3 |
| 20260905085404 | 67 | 186 | 0.0 | 0.0 | 0.00 | 0.29 | 0.00 | 96 | 1011.0 |
| 20260905084404 | 67 | 186 | 0.0 | 0.0 | 0.00 | 0.29 | 0.00 | 96 | 1010.5 |
| 20260905083903 | 67 | 186 | 0.0 | 0.0 | 0.00 | 0.29 | 0.00 | 96 | 1010.5 |
| 20260905083404 | 67 | 186 | 0.0 | 0.0 | 0.00 | 0.29 | 0.00 | 96 | 1010.4 |
| 20260905082904 | 67 | 186 | 0.0 | 0.0 | 0.00 | 0.29 | 0.00 | 96 | 1010.4 |
| 20260905082404 | 67 | 186 | 0.0 | 0.0 | 0.00 | 0.29 | 0.00 | 96 | 1010.8 |
| 20260905081904 | 67 | 186 | 0.0 | 0.0 | 0.00 | 0.29 | 0.00 | 96 | 1010.9 |
| 20260905081404 | 67 | 186 | 0.0 | 0.0 | 0.00 | 0.29 | 0.00 | 96 | 1011.0 |
| 20260905075904 | 67 | 186 | 0.0 | 0.0 | 0.00 | 0.29 | 0.00 | 96 | 1011.1 |
| 20260905075404 | 67 | 186 | 0.0 | 0.0 | 0.00 | 0.29 | 0.00 | 96 | 1011.0 |
| 20260905074904 | 67 | 186 | 0.0 | 0.0 | 0.00 | 0.29 | 0.00 | 96 | 1010.9 |
| 20260905074404 | 67 | 186 | 0.0 | 0.0 | 0.00 | 0.29 | 0.00 | 96 | 1011.1 |
| 20260905073904 | 67 | 186 | 0.0 | 0.0 | 0.00 | 0.29 | 0.00 | 96 | 1011.0 |
| 20260905073404 | 67 | 186 | 0.0 | 0.0 | 0.00 | 0.29 | 0.00 | 95 | 1010.9 |
| 20260905072904 | 67 | 186 | 0.0 | 0.0 | 0.00 | 0.29 | 0.00 | 95 | 1010.9 |
| 20260905072404 | 67 | 186 | 0.0 | 0.0 | 0.00 | 0.29 | 0.00 | 96 | 1010.9 |
| 20260905071903 | 67 | 186 | 0.0 | 0.0 | 0.00 | 0.29 | 0.00 | 95 | 1010.8 |
| 20260905071403 | 67 | 186 | 0.0 | 0.0 | 0.00 | 0.29 | 0.00 | 95 | 1010.9 |
| 20260905070904 | 67 | 186 | 0.0 | 0.0 | 0.00 | 0.29 | 0.00 | 96 | 1010.9 |
| 20260905070404 | 67 | 186 | 0.0 | 0.0 | 0.00 | 0.29 | 0.00 | 96 | 1011.1 |
| 20260905065903 | 67 | 186 | 0.0 | 0.0 | 0.00 | 0.29 | 0.00 | 96 | 1011.1 |
| 20260905064904 | 67 | 186 | 0.0 | 0.0 | 0.00 | 0.29 | 0.00 | 96 | 1011.4 |
| 20260905063903 | 67 | 186 | 0.0 | 0.0 | 0.00 | 0.29 | 0.00 | 96 | 1011.6 |
| 20260905063403 | 67 | 186 | 0.0 | 0.0 | 0.00 | 0.29 | 0.00 | 96 | 1011.7 |
| 20260905062904 | 67 | 186 | 0.0 | 0.0 | 0.00 | 0.29 | 0.00 | 95 | 1011.7 |
| 20260905061904 | 67 | 186 | 0.0 | 0.0 | 0.00 | 0.29 | 0.00 | 95 | 1011.7 |
| 20260905061404 | 67 | 186 | 0.0 | 0.0 | 0.00 | 0.29 | 0.00 | 95 | 1012.0 |
| 20260905060905 | 67 | 186 | 0.0 | 0.0 | 0.00 | 0.29 | 0.00 | 95 | 1012.0 |
| 20260905055405 | 67 | 186 | 0.0 | 0.0 | 0.00 | 0.29 | 0.00 | 95 | 1012.2 |
| 20260905054905 | 67 | 186 | 0.0 | 0.0 | 0.00 | 0.29 | 0.00 | 95 | 1012.2 |
| 20260905054405 | 67 | 186 | 0.0 | 0.0 | 0.00 | 0.29 | 0.00 | 95 | 1012.1 |
| 20260905053905 | 67 | 186 | 0.0 | 0.0 | 0.00 | 0.29 | 0.00 | 95 | 1012.0 |
| 20260905053405 | 67 | 186 | 0.0 | 0.0 | 0.00 | 0.29 | 0.00 | 95 | 1012.1 |
| 20260905052905 | 67 | 186 | 0.0 | 0.0 | 0.00 | 0.30 | 0.00 | 95 | 1012.1 |
| 20260905052404 | 67 | 186 | 0.0 | 0.0 | 0.00 | 0.30 | 0.00 | 95 | 1012.2 |